Flag for U.S.A. Weather past 2 weeks in Rancho Cucamonga, California, U.S.A.

45 °F


Feels Like: 45 °F
Forecast: 37 / 63 °F
Wind: No wind

Location: Ontario International Airport

Current Time: Nov 30, 2015 at 12:11:35 AM

Latest Report: Nov 29, 2015 at 10:53 PM

Visibility: 10 mi

Pressure: 30.17 "Hg

Humidity: 49%

Dew point: 27 °F

Location of Rancho CucamongaLocation

Historic Weather in Rancho Cucamonga — Graph


Rancho Cucamonga temperature yesterday

Maximum temperature yesterday: 64 °F (at 2:53 PM)
Minimum temperature yesterday: 43 °F (at 2:53 AM)
Average temperature yesterday: 52 °F

Past Weeks' High & Low Weather Summary

High87 °F (Nov 21, 12:53 PM)93% (Nov 25, 2:53 AM)30.19 "Hg (Nov 25, 2:53 AM)
Low39 °F (Nov 28, 5:53 AM)6% (Nov 22, 11:53 AM)29.82 "Hg (Nov 25, 2:53 AM)
Average59 °F39%29.97 "Hg
* Reported Nov 14 10:53 PM — Nov 29 10:53 PM, Rancho Cucamonga, Weather by CustomWeather, © 2015

Note: Actual official high and low records may vary slightly from our data, if they occured in-between our weather recording intervals... More about our weather records


Rancho Cucamonga weather history for previous 24 hours

Time TempWeatherWind HumidityBarometerVisibility
10:53 PM
Sun, Nov 29
45 °FClear.No wind49%30.17 "Hg10 mi
9:53 PM50 °FClear.5 mph39%30.16 "Hg10 mi
8:53 PM48 °FClear.3 mph50%30.16 "Hg10 mi
7:53 PM51 °FClear.3 mph42%30.14 "Hg10 mi
6:53 PM54 °FClear.No wind38%30.13 "Hg10 mi
5:53 PM56 °FClear.N/A19%30.10 "Hg10 mi
4:53 PM60 °FClear.No wind15%30.08 "Hg10 mi
3:53 PM63 °FSunny.5 mph14%30.08 "Hg10 mi
2:53 PM64 °FSunny.No wind13%30.07 "Hg10 mi
1:53 PM63 °FSunny.3 mph15%30.07 "Hg10 mi
12:53 PM63 °FSunny.5 mph15%30.08 "Hg10 mi
11:53 AM61 °FSunny.3 mph17%30.11 "Hg10 mi
10:53 AM60 °FSunny.3 mph19%30.13 "Hg10 mi
9:53 AM55 °FPassing clouds.No wind24%30.14 "Hg10 mi
8:53 AM53 °FPassing clouds.No wind28%30.14 "Hg10 mi
7:53 AM49 °FPassing clouds.No wind36%30.12 "Hg10 mi
6:53 AM43 °FPartly sunny.No wind49%30.11 "Hg10 mi
5:53 AM45 °FPassing clouds.No wind44%30.09 "Hg10 mi
4:53 AM45 °FPassing clouds.No wind45%30.08 "Hg10 mi
3:53 AM44 °FPassing clouds.5 mph47%30.07 "Hg10 mi
2:53 AM43 °FPassing clouds.3 mph51%30.07 "Hg10 mi
1:53 AM45 °FPassing clouds.3 mph45%30.09 "Hg10 mi
12:53 AM46 °FPassing clouds.5 mph42%30.09 "Hg10 mi
Weather by CustomWeather, © 2015

See weather overviewHow to use our weather pages